OBJECT DB, 58570

Orbit data source: Space-Track

You're viewing an uncataloged RSO

Recently launched and/or uncataloged RSOs may have evolving metadata. Metadata may include the following, but is not limited to: Owner, Manufacturer, Bus, Motor, and Mission.

OBJECT DB, 58570 is a satellite in SSO that was launched on Sat, 11 Nov 2023 UTC via an FALCON 9 launch vehicle from the Air Force Western Test Range (AFWTR). Unknown objects in Earth's orbit typically refer to objects detected orbiting the Earth but have not yet been identified or cataloged. These objects could be anything from previously untracked satellites, spent rocket stages, debris from satellite collisions, or even natural meteoroids temporarily captured by Earth's gravity.

Not visible in the next 10 days
Identifier
58570, 2023-174DB
Orbit
SSO
Country
Flag of TBDTBD
Related business
None
Manufacturer
Unknown
Mission
Commercial Communications
Bus & Motor
Unknown
Mass
Unknown
Launch date (UTC)
2023-11-11 (3 years ago)
Launch vehicle
FALCON 9
Launch site
Air Force Western Test Range (AFWTR)
Object type
Unknown
Shape & HBR
Box, 0.2 m
Radar Cross Section
0.080 m², Medium (>0.1 m² and < 1m²)

Expand to show TLE details & history
Last TLE update: 10 hours ago

TLE from 10 hours ago
0 OBJECT DB
1 58570U 23174DB  26219.86199028  .00290762  37668-4  55194-3 0  9992
2 58570  97.3608 321.0060 0006926 240.5602 119.4985 16.00677651154369
Epoch: 2026-08-07T20:41Z
TLE epoch observation values (Epoch: 2026-08-07T20:41:15.960Z)
Latitude
-0.00009°
Longitude
54.30791°
Altitude
278.012 km
Speed
7.739 km/s
True Right ascension
21h 24m 01s
True Declination
0° 00' 00"
Sunlit
Object was in full shadow at epoch
Visualization orbit readout
Latitude
Unknown
Longitude
Unknown
Altitude
Unknown
Speed
Unknown
Apparent Right ascension
Unknown
Apparent Declination
Unknown
Sunlit
N/A
Visualization observer readout
Local Sidereal Time
20:46:35
Azimuth
Unknown
Elevation
Unknown
Doppler factor
Unknown
Orbital elements
Apogee altitude
274.002 km
Perigee altitude
264.794 km
Semi-major axis
6,647.535 km
Eccentricity
0.00069
Inclination
97.3608°
RAAN
321.006°
Arg. of periapsis
240.5602°
True anomaly
119.56755°
Mean anomaly
119.4985°
Eccentric anomaly
119.53303°
Mean motion
4.00454 °/min
Orbital period
89.9 mins
BSTAR
0.00055194
Loading maneuver chart data...
Computing Atmospheric mass density...

Documentation

Showing up to 5 results
|